Location: Noulens
(43.8099°N, 0.1664°E)
Time: 07:35:03
(UTC+00:00)

Cosmos 1606 - Pass Details

Date: 07 June 2020
Orbit: 504 x 528 km, 82.5° (Epoch: 04 July)

Event Time Altitude Azimuth Distance (km) Brightness Sun altitude
Rises 02:49:36 0° 358° (N) 2,616 7.1 -12.7°
Reaches altitude 10° 02:51:49 10° 5° (N) 1,727 6.2 -12.4°
Maximum altitude 02:55:26 43° 78° (ENE) 719 3.8 -12.0°
Drops below altitude 10° 02:59:03 10° 151° (SSE) 1,722 5.2 -11.6°
Sets 03:01:14 0° 158° (SSE) 2,606 6.0 -11.3°
